This is the latest recevied weather packets stored in our database for station/object N7NIP. If no packets are shown the sender has not sent any weather packets the latest 10 day(s).
| Time | Temp. | Humidity | Pressure | Rain* | Wind** | Luminosity | Snow |
|---|---|---|---|---|---|---|---|
| 1777315147 | 11.11° C | 73% | 1030.9 hPa | 0 mm | - | 231 W/m² | - |
| 1777314842 | 11.11° C | 72% | 1031 hPa | 0 mm | - | 228 W/m² | - |
| 1777314539 | 11.11° C | 73% | 1031 hPa | 0 mm | - | 217 W/m² | - |
| 1777314235 | 11.11° C | 73% | 1031 hPa | 0 mm | - | 254 W/m² | - |
| 1777313934 | 11.11° C | 73% | 1030.8 hPa | 0 mm | - | 245 W/m² | - |
| 1777313631 | 11.11° C | 74% | 1030.9 hPa | 0 mm | - | 228 W/m² | - |
| 1777313329 | 10.56° C | 75% | 1031 hPa | 0 mm | - | 253 W/m² | - |
| 1777313025 | 10.56° C | 76% | 1030.9 hPa | 0 mm | - | 183 W/m² | - |
| 1777312721 | 11.11° C | 74% | 1030.8 hPa | 0 mm | - | 204 W/m² | - |
| 1777312418 | 11.11° C | 73% | 1030.7 hPa | 0 mm | - | 160 W/m² | - |
| 1777312115 | 11.11° C | 73% | 1030.8 hPa | 0 mm | - | 185 W/m² | - |
| 1777311813 | 11.11° C | 73% | 1030.8 hPa | 0 mm | - | 231 W/m² | - |
| 1777311510 | 11.11° C | 75% | 1030.9 hPa | 0 mm | - | 265 W/m² | - |
| 1777311207 | 11.11° C | 75% | 1030.6 hPa | 0 mm | - | 260 W/m² | - |
| 1777310905 | 10.56° C | 75% | 1030.8 hPa | 0 mm | - | 178 W/m² | - |
| 1777310602 | 10.56° C | 76% | 1030.7 hPa | 0 mm | - | 250 W/m² | - |
| 1777310300 | 10.56° C | 77% | 1030.8 hPa | 0 mm | - | 190 W/m² | - |
| 1777309996 | 10.56° C | 75% | 1030.7 hPa | 0 mm | - | 238 W/m² | - |
| 1777309694 | 10.56° C | 77% | 1030.8 hPa | 0 mm | - | 220 W/m² | - |
| 1777309391 | 10.56° C | 77% | 1030.7 hPa | 0 mm | - | 206 W/m² | - |
| 1777309089 | 10.56° C | 79% | 1030.5 hPa | 0 mm | - | 246 W/m² | - |
| 1777308786 | 10.56° C | 77% | 1030.7 hPa | 0 mm | - | 231 W/m² | - |
| 1777308481 | 10° C | 79% | 1030.7 hPa | 0 mm | - | 216 W/m² | - |
| 1777308177 | 10° C | 79% | 1030.7 hPa | 0 mm | - | 217 W/m² | - |
| 1777307873 | 10° C | 79% | 1030.5 hPa | 0 mm | - | 163 W/m² | - |
* Rain latest hour (hover to see other rain measurements)
** Current wind speed in m/s (hover to see current wind gust speed)